This is the latest recevied weather packets stored in our database for station/object HP1COO-13. If no packets are shown the sender has not sent any weather packets the latest 1 day(s).
| Time | Temp. | Humidity | Pressure | Rain* | Wind** | Luminosity | Snow |
|---|---|---|---|---|---|---|---|
| 1836274674 | 25.56° C | 93% | 1012.2 hPa | 0 mm | 0.89 m/s, 290° | - | - |
| 1836274557 | 25.56° C | 94% | 1011.7 hPa | 0 mm | 0.89 m/s, 317° | - | - |
| 1836274041 | 25.56° C | 93% | 1012.1 hPa | 0 mm | 0.89 m/s, 352° | - | - |
| 1778038487 | 26.11° C | 95% | 1009.8 hPa | 0 mm | 0.89 m/s, 3° | - | - |
| 1778037854 | 26.11° C | 95% | 1009.8 hPa | 0 mm | 1.34 m/s, 33° | - | - |
| 1778037221 | 26.11° C | 96% | 1009.4 hPa | 0 mm | 0.89 m/s, 1° | - | - |
| 1778035955 | 26.11° C | 96% | 1009.5 hPa | 0 mm | 0.89 m/s, 358° | - | - |
| 1778035322 | 26.67° C | 96% | 1009.4 hPa | 0 mm | 0.45 m/s, 358° | - | - |
| 1778034689 | 26.67° C | 96% | 1009.2 hPa | 0 mm | 0.89 m/s, 5° | - | - |
| 1778034056 | 26.11° C | 96% | 1009.2 hPa | 0 mm | 0.89 m/s, 54° | - | - |
| 1778033423 | 26.11° C | 97% | 1008.9 hPa | 0 mm | 0.45 m/s, 25° | - | - |
| 1778032790 | 26.11° C | 98% | 1008.8 hPa | 0 mm | 0.89 m/s, 76° | - | - |
| 1778032157 | 26.11° C | 99% | 1008.9 hPa | 0 mm | 0.45 m/s, 350° | - | - |
| 1778030891 | 26.11° C | 99% | 1008.8 hPa | 0 mm | 0.45 m/s, 57° | - | - |
| 1778030258 | 26.11° C | 99% | 1008.6 hPa | 0 mm | 0.89 m/s, 61° | - | - |
| 1778029625 | 26.11° C | 99% | 1008.4 hPa | 0 mm | 0.89 m/s, 8° | - | - |
| 1778028992 | 26.11° C | 99% | 1008.1 hPa | 0 mm | 0.89 m/s, 68° | - | - |
| 1778028359 | 26.11° C | 99% | 1008.1 hPa | 0 mm | 0.45 m/s, 8° | - | - |
| 1778027726 | 26.11° C | 99% | 1008.2 hPa | 0 mm | 0.89 m/s, 4° | - | - |
| 1778027093 | 26.11° C | 99% | 1008 hPa | 0 mm | 0.89 m/s, 55° | - | - |
| 1778026460 | 26.11° C | 99% | 1008 hPa | 0 mm | 0 m/s | - | - |
| 1778025827 | 26.11° C | 99% | 1007.9 hPa | 0 mm | 0.45 m/s, 12° | - | - |
| 1778025194 | 26.11° C | 99% | 1007.7 hPa | 0 mm | 0.89 m/s, 354° | - | - |
| 1778024561 | 26.11° C | 99% | 1007.4 hPa | 0 mm | 0 m/s | - | - |
| 1778023928 | 26.11° C | 99% | 1007.3 hPa | 0 mm | 0 m/s | - | - |
* Rain latest hour (hover to see other rain measurements)
** Current wind speed in m/s (hover to see current wind gust speed)